TimeEDT,TemperatureF,Dew PointF,Humidity,Sea Level PressureIn,VisibilityMPH,Wind Direction,Wind SpeedMPH,Gust SpeedMPH,PrecipitationIn,Events,Conditions,WindDirDegrees,DateUTC
12:53 AM,24.1,10.0,55,30.01,10.0,NE,12.7,-,N/A,,Clear,50,2014-03-17 04:53:00
1:53 AM,23.0,10.9,60,30.00,10.0,ENE,9.2,-,N/A,,Clear,60,2014-03-17 05:53:00
2:53 AM,21.9,10.9,63,30.01,10.0,NNE,10.4,-,N/A,,Partly Cloudy,30,2014-03-17 06:53:00
3:25 AM,21.9,10.9,63,29.98,10.0,NE,10.4,-,N/A,,Mostly Cloudy,40,2014-03-17 07:25:00
3:53 AM,21.9,10.9,63,29.98,10.0,NE,10.4,-,N/A,,Overcast,50,2014-03-17 07:53:00
4:53 AM,21.9,10.9,63,29.96,10.0,NE,11.5,-,N/A,,Overcast,40,2014-03-17 08:53:00
5:53 AM,21.9,10.9,63,29.94,10.0,NE,9.2,-,N/A,,Overcast,40,2014-03-17 09:53:00
6:53 AM,21.9,10.9,63,29.94,10.0,ENE,8.1,-,N/A,,Overcast,60,2014-03-17 10:53:00
7:53 AM,23.0,10.9,60,29.94,10.0,ENE,8.1,-,N/A,,Overcast,60,2014-03-17 11:53:00
8:53 AM,23.0,12.0,63,29.96,10.0,NE,5.8,-,N/A,,Overcast,50,2014-03-17 12:53:00
9:53 AM,24.1,12.9,62,29.96,10.0,ENE,6.9,-,N/A,,Overcast,70,2014-03-17 13:53:00
10:53 AM,25.0,12.9,60,29.96,10.0,East,5.8,-,N/A,,Overcast,80,2014-03-17 14:53:00
11:53 AM,27.0,14.0,58,29.94,10.0,ENE,6.9,-,N/A,,Overcast,60,2014-03-17 15:53:00
12:53 PM,28.9,15.1,56,29.93,10.0,ENE,4.6,-,N/A,,Overcast,60,2014-03-17 16:53:00
1:53 PM,32.0,16.0,52,29.92,10.0,SE,3.5,-,N/A,,Overcast,140,2014-03-17 17:53:00
2:53 PM,35.1,18.0,50,29.88,10.0,Variable,3.5,-,N/A,,Overcast,0,2014-03-17 18:53:00
3:53 PM,37.9,19.9,48,29.86,10.0,Variable,3.5,-,N/A,,Overcast,0,2014-03-17 19:53:00
4:53 PM,41.0,21.0,45,29.84,10.0,SE,5.8,-,0.00,,Mostly Cloudy,140,2014-03-17 20:53:00
5:06 PM,39.9,21.9,49,29.82,10.0,Calm,Calm,-,N/A,,Overcast,0,2014-03-17 21:06:00
5:53 PM,41.0,21.9,47,29.85,10.0,Calm,Calm,-,N/A,,Scattered Clouds,0,2014-03-17 21:53:00
6:53 PM,43.0,23.0,45,29.84,10.0,Calm,Calm,-,N/A,,Mostly Cloudy,0,2014-03-17 22:53:00
7:53 PM,39.9,21.9,49,29.85,10.0,Calm,Calm,-,N/A,,Mostly Cloudy,0,2014-03-17 23:53:00
8:53 PM,36.0,24.1,62,29.86,10.0,Calm,Calm,-,N/A,,Scattered Clouds,0,2014-03-18 00:53:00
9:53 PM,35.1,23.0,61,29.88,10.0,SSE,6.9,-,N/A,,Clear,150,2014-03-18 01:53:00
10:53 PM,30.0,21.9,72,29.90,10.0,Calm,Calm,-,N/A,,Clear,0,2014-03-18 02:53:00
11:53 PM,30.0,21.9,72,29.90,10.0,SSE,3.5,-,N/A,,Clear,160,2014-03-18 03:53:00